This demonstration page uses our WeatherBlox Daily Observations layout. Learn more.

Left ArrowRight Arrow

Hourly Observations for January 1, 2017

Temp ( °F °C ) Dew Point ( °F °C ) Humidity (%) Winds ( mph kmh ) Pressure ( in mb ) Visibility ( mi km ) Precip ( " mm )
12:58 am 00:58 Clear 17 -8.2 17 -8.5 98 98 Calm 29.99 1016 10 16 0.00 0.00
1:58 am 01:58 Clear 17 -8.6 16 -8.7 99 99 ESE 5 7 29.99 1016 10 16 0.00 0.00
2:58 am 02:58 Clear 16 -8.8 15 -9.2 97 97 ENE 3 6 29.99 1016 10 16 0.00 0.00
3:58 am 03:58 Clear 18 -8 17 -8.3 98 98 ESE 3 6 29.99 1016 10 16 0.00 0.00
4:58 am 04:58 Clear 13 -10.3 13 -10.4 99 99 Calm 30.01 1016 10 16 0.00 0.00
5:58 am 05:58 Clear 18 -8 17 -8.4 97 97 E 6 9 30.02 1017 10 16 0.00 0.00
6:58 am 06:58 Clear 18 -7.7 18 -7.9 98 98 E 3 6 30.02 1017 10 16 0.00 0.00
7:58 am 07:58 Partly Cloudy 20 -6.9 19 -7.2 98 98 E 5 7 30.03 1017 10 16 0.00 0.00
8:58 am 08:58 Sunny 23 -5.1 22 -5.3 99 99 E 3 6 30.04 1017 10 16 0.00 0.00
9:20 am 09:20 Mostly Cloudy 25 -4 23 -5 93 93 E 3 6 30.03 1017 10 16 0.00 0.00
9:58 am 09:58 Partly Cloudy 26 -3.4 25 -3.7 98 98 E 5 7 30.06 1018 10 16 0.00 0.00
10:58 am 10:58 Sunny 28 -2.2 27 -3 94 94 SE 6 9 30.06 1018 10 16 0.00 0.00
11:58 am 11:58 Mostly Sunny 31 -0.8 28 -2.4 89 89 SE 10 17 30.04 1017 10 16 0.00 0.00
12:58 pm 12:58 Mostly Cloudy 34 1.2 28 -2.5 77 77 SE 8 13 30.00 1016 10 16 0.00 0.00
1:58 pm 13:58 Mostly Sunny 36 2 26 -3.6 67 67 SE 8 13 29.97 1015 10 16 0.00 0.00
2:58 pm 14:58 Partly Cloudy 38 3.3 24 -4.3 58 58 ESE 9 15 29.97 1015 10 16 0.00 0.00
3:58 pm 15:58 Partly Cloudy 38 3.5 22 -5.5 52 52 ESE 8 13 29.97 1015 10 16 0.00 0.00
4:58 pm 16:58 Partly Cloudy 37 2.8 23 -4.9 57 57 ENE 8 13 29.94 1014 10 16 0.00 0.00
5:58 pm 17:58 Clear 28 -2 19 -7.3 67 67 SW 3 6 29.96 1015 10 16 0.00 0.00
6:58 pm 18:58 Cloudy 37 2.7 22 -5.6 55 55 ENE 9 15 29.93 1014 10 16 0.00 0.00
7:58 pm 19:58 Cloudy 37 2.8 22 -5.6 54 54 E 9 15 29.93 1014 10 16 0.00 0.00
8:58 pm 20:58 Mostly Cloudy 37 2.9 21 -6 52 52 E 12 19 29.93 1014 10 16 0.00 0.00
9:58 pm 21:58 Cloudy 37 2.8 23 -5.1 56 56 ESE 14 22 29.93 1014 10 16 0.00 0.00
10:58 pm 22:58 Cloudy 37 2.8 25 -4 61 61 ESE 12 19 29.93 1014 10 16 0.00 0.00
11:58 pm 23:58 Cloudy 37 2.7 27 -3 66 66 ESE 10 17 29.92 1013 10 16 0.00 0.00

Powered by AerisWeather